FW7979 Weather Reports


Display with metric or nautical units.
time (UTC)temp
F
wind
direction
speed
MPH
gust
MPH
rain 1hr
in
rain 24hr
in
rain mn
in
humidity
%
barometer
mb
20211208221521 31 0 0.0 0.0 0.00 0.00 0.00 92 1012.6
20211208221019 31 0 0.0 0.0 0.00 0.00 0.00 92 1012.6
20211208220517 31 0 0.0 0.0 0.00 0.00 0.00 92 1012.7
20211208220057 31 0 0.0 0.0 0.00 0.00 0.00 92 1012.8
20211208215516 31 0 0.0 0.0 0.00 0.00 0.00 92 1012.7
20211208215016 31 0 0.0 0.0 0.00 0.00 0.00 92 1012.7
20211208214525 31 0 0.0 0.0 0.00 0.00 0.00 92 1012.7
20211208214017 31 0 0.0 0.0 0.00 0.00 0.00 92 1012.5
20211208213528 31 0 0.0 0.0 0.00 0.00 0.00 92 1012.4
20211208213057 31 0 0.0 0.0 0.00 0.00 0.00 92 1012.4
20211208212538 31 0 0.0 0.0 0.00 0.00 0.00 92 1012.7
20211208212017 31 0 0.0 0.0 0.00 0.00 0.00 92 1012.6
20211208211517 31 0 0.0 0.0 0.00 0.00 0.00 92 1012.7
20211208211017 31 0 0.0 0.0 0.00 0.00 0.00 91 1012.7
20211208210541 31 0 0.0 0.0 0.00 0.00 0.00 91 1012.6
20211208210039 31 0 0.0 1.0 0.00 0.00 0.00 91 1012.6
20211208205517 31 0 0.0 2.0 0.00 0.00 0.00 91 1012.7
20211208205015 31 0 0.0 2.0 0.00 0.00 0.00 91 1012.8
20211208204554 31 0 0.0 3.0 0.00 0.00 0.00 91 1012.8
20211208204016 31 0 0.0 3.0 0.00 0.00 0.00 90 1012.8
20211208203515 31 24 1.0 3.0 0.00 0.00 0.00 90 1012.7
20211208203037 31 40 1.0 4.0 0.00 0.00 0.00 90 1012.7
20211208202527 31 51 1.0 4.0 0.00 0.00 0.00 90 1012.7
20211208202017 31 24 1.0 5.0 0.00 0.00 0.00 89 1012.6
20211208201545 31 28 2.0 5.0 0.00 0.00 0.00 89 1012.7
20211208201027 31 23 1.0 5.0 0.00 0.00 0.00 88 1012.7
20211208200518 32 15 1.0 5.0 0.00 0.00 0.00 87 1012.7
20211208200052 32 24 1.0 5.0 0.00 0.00 0.00 86 1012.7
20211208195516 32 23 1.0 5.0 0.00 0.00 0.00 85 1012.9
20211208195021 32 26 1.0 3.0 0.00 0.00 0.00 84 1013.0
20211208194522 32 23 0.0 4.0 0.00 0.00 0.00 83 1012.9
20211208194022 33 23 1.0 4.0 0.00 0.00 0.00 82 1013.1
20211208193516 33 26 0.0 4.0 0.00 0.00 0.00 81 1013.1
20211208193027 33 0 1.0 5.0 0.00 0.00 0.00 80 1013.1
20211208192520 33 23 2.0 5.0 0.00 0.00 0.00 77 1013.2
20211208192027 34 0 1.0 3.0 0.00 0.00 0.00 75 1013.5
20211208191524 34 48 0.0 3.0 0.00 0.00 0.00 73 1013.3
20211208191030 34 0 0.0 2.0 0.00 0.00 0.00 72 1013.4
20211208190528 35 0 0.0 2.0 0.00 0.00 0.00 70 1013.4
20211208190055 35 0 0.0 3.0 0.00 0.00 0.00 70 1013.5
20211208185516 35 48 1.0 3.0 0.00 0.00 0.00 69 1013.5
20211208185024 35 59 1.0 3.0 0.00 0.00 0.00 68 1013.8
20211208184544 35 0 0.0 4.0 0.00 0.00 0.00 68 1013.8
20211208184017 35 25 0.0 4.0 0.00 0.00 0.00 67 1014.0
20211208183519 35 0 0.0 3.0 0.00 0.00 0.00 66 1014.1
20211208183031 35 22 0.0 3.0 0.00 0.00 0.00 66 1014.1
20211208182517 35 0 0.0 4.0 0.00 0.00 0.00 66 1014.4
20211208182017 35 19 1.0 4.0 0.00 0.00 0.00 64 1014.6
20211208181537 35 0 0.0 3.0 0.00 0.00 0.00 65 1014.4
20211208181017 35 53 0.0 3.0 0.00 0.00 0.00 64 1014.5
20211208180525 35 18 0.0 3.0 0.00 0.00 0.00 65 1014.6
20211208180027 35 0 0.0 3.0 0.00 0.00 0.00 63 1014.7
20211208175534 35 0 0.0 2.0 0.00 0.00 0.00 65 1014.7
20211208175016 35 50 0.0 3.0 0.00 0.00 0.00 64 1015.0
20211208174518 35 0 1.0 3.0 0.00 0.00 0.00 63 1015.0
20211208174015 35 44 0.0 3.0 0.00 0.00 0.00 64 1015.1
20211208173515 35 0 1.0 3.0 0.00 0.00 0.00 63 1015.3
20211208173022 35 0 0.0 3.0 0.00 0.00 0.00 64 1015.4
20211208172536 35 35 0.0 3.0 0.00 0.00 0.00 64 1015.5
20211208172020 35 0 0.0 3.0 0.00 0.00 0.00 64 1015.5
20211208171543 35 22 0.0 4.0 0.00 0.00 0.00 64 1015.6
20211208171016 35 22 0.0 4.0 0.00 0.00 0.00 64 1015.9
20211208170529 35 25 1.0 5.0 0.00 0.00 0.00 64 1015.9
20211208170037 35 26 1.0 5.0 0.00 0.00 0.00 65 1015.9
20211208165527 35 25 1.0 4.0 0.00 0.00 0.00 65 1016.0
20211208165037 35 0 0.0 1.0 0.00 0.00 0.00 66 1016.1
20211208164641 34 0 0.0 5.0 0.00 0.00 0.00 66 1016.2
20211208164015 34 0 1.0 5.0 0.00 0.00 0.00 65 1016.2
20211208163516 34 24 1.0 2.0 0.00 0.00 0.00 66 1016.3
20211208163035 34 0 0.0 3.0 0.00 0.00 0.00 67 1016.7
20211208162523 34 24 1.0 3.0 0.00 0.00 0.00 66 1016.8
20211208162015 34 24 0.0 3.0 0.00 0.00 0.00 66 1017.2
20211208161539 34 24 0.0 3.0 0.00 0.00 0.00 67 1017.3
20211208161018 34 0 0.0 2.0 0.00 0.00 0.00 66 1017.4
20211208160516 34 0 0.0 2.0 0.00 0.00 0.00 67 1017.6
20211208160055 34 0 0.0 2.0 0.00 0.00 0.00 67 1017.7
20211208155520 34 24 0.0 3.0 0.00 0.00 0.00 67 1017.8
20211208155015 34 24 1.0 3.0 0.00 0.00 0.00 66 1017.9
20211208154613 34 24 1.0 4.0 0.00 0.00 0.00 67 1017.9
20211208154016 34 24 2.0 4.0 0.00 0.00 0.00 66 1018.1
20211208153523 34 30 2.0 4.0 0.00 0.00 0.00 67 1018.2
20211208153021 33 0 0.0 3.0 0.00 0.00 0.00 67 1018.1
20211208152519 33 32 1.0 3.0 0.00 0.00 0.00 69 1018.3
20211208152015 33 22 1.0 4.0 0.00 0.00 0.00 70 1018.4
20211208151524 33 22 1.0 4.0 0.00 0.00 0.00 70 1018.7
20211208151019 33 0 0.0 1.0 0.00 0.00 0.00 72 1018.7
20211208150520 33 0 0.0 3.0 0.00 0.00 0.00 72 1019.1
20211208150025 33 0 1.0 4.0 0.00 0.00 0.00 72 1019.1
20211208145519 33 0 1.0 4.0 0.00 0.00 0.00 71 1018.9
20211208145016 33 28 0.0 4.0 0.00 0.00 0.00 72 1018.9
20211208144519 32 0 1.0 2.0 0.00 0.00 0.00 73 1019.1
20211208144018 32 30 0.0 2.0 0.00 0.00 0.00 74 1019.0
20211208143516 32 0 0.0 4.0 0.00 0.00 0.00 74 1019.1
20211208143056 32 30 1.0 4.0 0.00 0.00 0.00 74 1019.3
20211208142534 32 29 0.0 4.0 0.00 0.00 0.00 74 1019.4
20211208142015 32 20 0.0 3.0 0.00 0.00 0.00 75 1019.6
20211208141555 32 22 0.0 4.0 0.00 0.00 0.00 76 1019.5
20211208141032 31 0 0.0 4.0 0.00 0.00 0.00 75 1019.6
20211208140554 31 28 1.0 3.0 0.00 0.00 0.00 75 1019.5
20211208140043 31 0 0.0 0.0 0.00 0.00 0.00 76 1019.8
20211208135526 31 0 0.0 1.0 0.00 0.00 0.00 77 1019.8
20211208135017 31 0 0.0 3.0 0.00 0.00 0.00 77 1020.0
20211208134532 31 28 1.0 3.0 0.00 0.00 0.00 76 1019.7
20211208134016 31 0 0.0 3.0 0.00 0.00 0.00 77 1019.8
20211208133516 31 17 0.0 3.0 0.00 0.00 0.00 77 1020.0
20211208133016 31 5 0.0 3.0 0.00 0.00 0.00 77 1020.0
20211208132515 31 0 0.0 2.0 0.00 0.00 0.00 77 1020.2
20211208132015 31 5 0.0 1.0 0.00 0.00 0.00 78 1020.2
20211208131548 31 0 0.0 2.0 0.00 0.00 0.00 78 1020.4
20211208131035 30 0 0.0 2.0 0.00 0.00 0.00 78 1020.4
20211208130516 30 5 0.0 2.0 0.00 0.00 0.00 78 1020.5
20211208130032 30 0 0.0 1.0 0.00 0.00 0.00 79 1020.4
20211208125515 30 0 0.0 2.0 0.00 0.00 0.00 78 1020.5
20211208125018 30 0 0.0 2.0 0.00 0.00 0.00 78 1020.4
20211208124551 30 0 0.0 0.0 0.00 0.00 0.00 79 1020.6
20211208124020 30 0 0.0 0.0 0.00 0.00 0.00 79 1020.5
20211208123545 30 0 0.0 0.0 0.00 0.00 0.00 78 1020.6
20211208123042 30 0 0.0 0.0 0.00 0.00 0.00 79 1020.8
20211208122517 30 0 0.0 0.0 0.00 0.00 0.00 78 1020.6
20211208122026 30 0 0.0 0.0 0.00 0.00 0.00 78 1020.7
20211208121533 30 0 0.0 0.0 0.00 0.00 0.00 78 1020.7
20211208121026 30 0 0.0 2.0 0.00 0.00 0.00 78 1020.7
20211208120530 30 0 0.0 2.0 0.00 0.00 0.00 78 1020.9
20211208120026 30 347 0.0 2.0 0.00 0.00 0.00 78 1020.9
20211208115543 30 0 0.0 2.0 0.00 0.00 0.00 78 1020.8
20211208115017 30 0 0.0 1.0 0.00 0.00 0.00 79 1020.8
20211208114522 30 0 0.0 1.0 0.00 0.00 0.00 79 1020.7
20211208114021 30 0 0.0 0.0 0.00 0.00 0.00 79 1020.7
20211208113517 30 0 0.0 1.0 0.00 0.00 0.00 79 1020.6
20211208113037 30 0 0.0 1.0 0.00 0.00 0.00 78 1020.6
20211208112516 30 0 0.0 0.0 0.00 0.00 0.00 78 1020.6
20211208112022 30 0 0.0 0.0 0.00 0.00 0.00 78 1020.6
20211208111521 30 0 0.0 0.0 0.00 0.00 0.00 78 1020.6
20211208111016 30 0 0.0 0.0 0.00 0.00 0.00 78 1020.6
20211208110519 30 0 0.0 0.0 0.00 0.00 0.00 79 1020.6
20211208110039 30 0 0.0 2.0 0.00 0.00 0.00 78 1020.7
20211208105540 30 0 0.0 2.0 0.00 0.00 0.00 79 1020.7
20211208105030 30 0 0.0 2.0 0.00 0.00 0.00 79 1020.7
20211208104529 30 0 0.0 2.0 0.00 0.00 0.00 79 1020.8
20211208104023 30 0 0.0 2.0 0.00 0.00 0.00 79 1020.8
20211208103520 30 0 0.0 0.0 0.00 0.00 0.00 80 1020.8
20211208103028 30 0 0.0 0.0 0.00 0.00 0.00 81 1020.9
20211208102524 30 0 0.0 0.0 0.00 0.00 0.00 81 1021.0
20211208102020 30 0 0.0 0.0 0.00 0.00 0.00 80 1020.9
20211208101520 30 0 0.0 0.0 0.00 0.00 0.00 80 1021.0
20211208101017 30 0 0.0 0.0 0.00 0.00 0.00 80 1021.1
20211208100517 30 0 0.0 0.0 0.00 0.00 0.00 80 1021.1
20211208100025 30 0 0.0 0.0 0.00 0.00 0.00 80 1021.1
20211208095525 30 0 0.0 0.0 0.00 0.00 0.00 80 1021.0
20211208095020 30 0 0.0 0.0 0.00 0.00 0.00 81 1020.8
20211208094523 30 0 0.0 0.0 0.00 0.00 0.00 81 1020.8
20211208094023 30 0 0.0 0.0 0.00 0.00 0.00 81 1020.8
20211208093524 30 0 0.0 0.0 0.00 0.00 0.00 82 1020.8
20211208093026 30 0 0.0 0.0 0.00 0.00 0.00 81 1020.9
20211208092519 30 0 0.0 0.0 0.00 0.00 0.00 81 1020.9
20211208092016 30 0 0.0 0.0 0.00 0.00 0.00 80 1020.9
20211208091554 30 0 0.0 0.0 0.00 0.00 0.00 80 1020.9
20211208091016 30 0 0.0 0.0 0.00 0.00 0.00 79 1020.7
20211208090516 30 0 0.0 0.0 0.00 0.00 0.00 80 1020.8
20211208090045 30 0 0.0 0.0 0.00 0.00 0.00 80 1021.0
20211208085516 30 0 0.0 0.0 0.00 0.00 0.00 80 1021.0
20211208085015 30 0 0.0 0.0 0.00 0.00 0.00 80 1020.9
20211208084537 29 0 0.0 0.0 0.00 0.00 0.00 80 1020.8
20211208084015 29 0 0.0 0.0 0.00 0.00 0.00 80 1020.7
20211208083535 30 0 0.0 0.0 0.00 0.00 0.00 81 1020.6
20211208083020 29 0 0.0 0.0 0.00 0.00 0.00 80 1020.8
20211208082521 29 0 0.0 0.0 0.00 0.00 0.00 80 1020.7
20211208082017 30 0 0.0 0.0 0.00 0.00 0.00 80 1020.7
20211208081540 30 0 0.0 0.0 0.00 0.00 0.00 80 1020.6
20211208081017 30 0 0.0 0.0 0.00 0.00 0.00 80 1020.6
20211208080535 30 0 0.0 0.0 0.00 0.00 0.00 80 1020.8
20211208080020 30 0 0.0 0.0 0.00 0.00 0.00 80 1020.9
20211208075518 30 0 0.0 0.0 0.00 0.00 0.00 80 1021.2
20211208075016 30 0 0.0 0.0 0.00 0.00 0.00 79 1021.2
20211208074540 30 0 0.0 0.0 0.00 0.00 0.00 79 1021.0
20211208074015 30 0 0.0 0.0 0.00 0.00 0.00 79 1021.0
20211208073520 30 0 0.0 0.0 0.00 0.00 0.00 80 1021.0
20211208073028 30 0 0.0 0.0 0.00 0.00 0.00 79 1021.1
20211208072518 30 0 0.0 0.0 0.00 0.00 0.00 79 1021.2
20211208072019 30 0 0.0 0.0 0.00 0.00 0.00 81 1021.2
20211208071522 30 0 0.0 0.0 0.00 0.00 0.00 81 1021.3
20211208071015 30 0 0.0 0.0 0.00 0.00 0.00 82 1021.2
20211208070526 30 0 0.0 0.0 0.00 0.00 0.00 82 1021.2
20211208070023 30 0 0.0 0.0 0.00 0.00 0.00 82 1021.2
20211208065516 30 0 0.0 0.0 0.00 0.00 0.00 84 1021.3
20211208065016 30 0 0.0 0.0 0.00 0.00 0.00 84 1021.2
20211208064519 29 0 0.0 0.0 0.00 0.00 0.00 84 1021.2
20211208064021 29 0 0.0 0.0 0.00 0.00 0.00 84 1021.3
20211208063516 29 0 0.0 0.0 0.00 0.00 0.00 84 1021.1
20211208063022 29 0 0.0 0.0 0.00 0.00 0.00 85 1021.2
20211208062526 29 0 0.0 0.0 0.00 0.00 0.00 85 1021.3
20211208062021 29 0 0.0 0.0 0.00 0.00 0.00 85 1021.3
20211208061550 29 0 0.0 0.0 0.00 0.00 0.00 85 1021.3
20211208061019 29 0 0.0 0.0 0.00 0.00 0.00 85 1021.2
20211208060521 29 0 0.0 0.0 0.00 0.00 0.00 85 1021.3
20211208060042 29 0 0.0 0.0 0.00 0.00 0.00 85 1021.3
20211208055522 29 0 0.0 0.0 0.00 0.00 0.00 85 1021.5
20211208055020 29 0 0.0 0.0 0.00 0.00 0.00 85 1021.4
20211208054521 29 0 0.0 0.0 0.00 0.00 0.00 85 1021.6
20211208054017 29 0 0.0 0.0 0.00 0.00 0.00 86 1021.6
20211208053524 29 0 0.0 0.0 0.00 0.00 0.00 85 1021.7
20211208053021 29 0 0.0 0.0 0.00 0.00 0.00 85 1021.7
20211208052524 29 0 0.0 0.0 0.00 0.00 0.00 85 1021.7
20211208052023 29 0 0.0 0.0 0.00 0.00 0.00 85 1021.9
20211208051532 29 0 0.0 0.0 0.00 0.00 0.00 85 1022.0
20211208051015 29 0 0.0 0.0 0.00 0.00 0.00 85 1021.9
20211208050538 29 0 0.0 0.0 0.00 0.00 0.00 84 1022.1
20211208050040 29 0 0.0 0.0 0.00 0.00 0.00 85 1022.0
20211208045524 29 0 0.0 0.0 0.00 0.00 0.00 84 1022.2
20211208045022 28 0 0.0 0.0 0.00 0.00 0.00 85 1022.0
20211208044524 28 0 0.0 0.0 0.00 0.00 0.00 85 1022.0
20211208044028 28 0 0.0 0.0 0.00 0.00 0.00 85 1021.9
20211208043516 28 0 0.0 0.0 0.00 0.00 0.00 84 1022.1
20211208043042 28 0 0.0 0.0 0.00 0.00 0.00 85 1022.1
20211208042515 28 0 0.0 0.0 0.00 0.00 0.00 84 1022.0
20211208042023 28 0 0.0 0.0 0.00 0.00 0.00 84 1022.2
20211208041552 29 0 0.0 0.0 0.00 0.00 0.00 83 1022.4
20211208041021 29 0 0.0 0.0 0.00 0.00 0.00 84 1022.3
20211208040515 29 0 0.0 0.0 0.00 0.00 0.00 84 1022.2
20211208040111 29 0 0.0 0.0 0.00 0.00 0.00 84 1022.3
20211208035528 29 0 0.0 0.0 0.00 0.01 0.00 84 1022.5
20211208035042 29 0 0.0 0.0 0.00 0.01 0.00 83 1022.5
20211208034618 29 0 0.0 0.0 0.00 0.01 0.00 83 1022.4
20211208034016 29 0 0.0 0.0 0.00 0.01 0.00 83 1022.4
20211208033516 29 0 0.0 0.0 0.00 0.01 0.00 82 1022.4
20211208033033 29 0 0.0 0.0 0.00 0.01 0.00 82 1022.4
20211208032518 29 0 0.0 0.0 0.00 0.01 0.00 83 1022.5
20211208032015 29 0 0.0 0.0 0.00 0.01 0.00 83 1022.6
20211208031520 29 0 0.0 0.0 0.00 0.01 0.00 83 1022.6
20211208031016 29 0 0.0 0.0 0.00 0.01 0.00 83 1022.5
20211208030523 29 0 0.0 0.0 0.00 0.01 0.00 82 1022.3
20211208030017 29 0 0.0 0.0 0.00 0.01 0.00 82 1022.4
20211208025533 29 0 0.0 0.0 0.00 0.10 0.00 82 1022.4
20211208025018 29 0 0.0 0.0 0.00 0.10 0.00 82 1022.4
20211208024528 29 0 0.0 0.0 0.00 0.10 0.00 81 1022.4
20211208024017 29 0 0.0 0.0 0.00 0.10 0.00 82 1022.4
20211208023522 29 0 0.0 0.0 0.00 0.10 0.00 81 1022.5
20211208023021 29 0 0.0 0.0 0.00 0.10 0.00 81 1022.5
20211208022515 29 0 0.0 0.0 0.00 0.10 0.00 81 1022.5
20211208022014 29 0 0.0 0.0 0.00 0.10 0.00 80 1022.4
20211208021603 29 0 0.0 0.0 0.00 0.10 0.00 80 1022.4
20211208021016 29 0 0.0 0.0 0.00 0.10 0.00 79 1022.3
20211208020515 30 0 0.0 0.0 0.00 0.10 0.00 79 1022.2
20211208020055 30 0 0.0 0.0 0.00 0.10 0.00 79 1022.3
20211208015516 30 0 0.0 0.0 0.00 0.12 0.00 78 1022.3
20211208015016 30 0 0.0 0.0 0.00 0.12 0.00 78 1022.2
20211208014626 30 0 0.0 0.0 0.00 0.12 0.00 77 1022.0
20211208014016 30 0 0.0 0.0 0.00 0.12 0.00 77 1022.1
20211208013516 30 0 0.0 0.0 0.00 0.12 0.00 77 1022.3
20211208013100 30 0 0.0 0.0 0.00 0.12 0.00 77 1022.3
20211208012537 30 0 0.0 0.0 0.00 0.12 0.00 77 1022.3
20211208012016 30 0 0.0 0.0 0.00 0.12 0.00 77 1022.3
20211208011525 30 0 0.0 0.0 0.00 0.12 0.00 76 1022.3
20211208011016 30 0 0.0 0.0 0.00 0.12 0.00 76 1022.3
20211208010515 30 0 0.0 0.0 0.00 0.12 0.00 76 1022.2
20211208010016 30 0 0.0 0.0 0.00 0.12 0.00 77 1022.2
20211208005526 30 0 0.0 0.0 0.00 0.12 0.00 77 1022.3
20211208005035 30 0 0.0 0.0 0.00 0.12 0.00 77 1022.2
20211208004517 30 0 0.0 0.0 0.00 0.12 0.00 76 1022.3
20211208004023 31 0 0.0 0.0 0.00 0.12 0.00 76 1022.2
20211208003516 31 0 0.0 0.0 0.00 0.12 0.00 76 1022.3
20211208003023 31 0 0.0 0.0 0.00 0.12 0.00 75 1022.3
20211208002533 31 0 0.0 0.0 0.00 0.12 0.00 76 1022.2
20211208002024 31 0 0.0 0.0 0.00 0.12 0.00 75 1022.2
20211208001541 31 0 0.0 0.0 0.00 0.12 0.00 74 1022.2
20211208001017 31 0 0.0 0.0 0.00 0.12 0.00 73 1022.1
20211208000517 31 0 0.0 0.0 0.00 0.12 0.00 74 1022.2
20211208000025 31 0 0.0 0.0 0.00 0.12 0.00 73 1022.2
20211207235516 31 0 0.0 0.0 0.00 0.12 0.00 72 1022.1
20211207235017 31 0 0.0 0.0 0.00 0.12 0.00 73 1022.3
20211207234603 31 0 0.0 0.0 0.00 0.12 0.00 71 1022.4
20211207234016 31 0 0.0 0.0 0.00 0.12 0.00 71 1022.1
20211207233528 31 0 0.0 0.0 0.00 0.12 0.00 72 1022.0
20211207233023 31 0 0.0 0.0 0.00 0.12 0.00 72 1021.9
20211207232524 31 0 0.0 0.0 0.00 0.12 0.00 71 1021.9
20211207232022 32 0 0.0 0.0 0.00 0.12 0.00 70 1021.8
20211207231520 32 0 0.0 0.0 0.00 0.12 0.00 70 1021.8
20211207231027 32 0 0.0 0.0 0.00 0.12 0.00 67 1021.6
20211207230515 32 0 0.0 0.0 0.00 0.12 0.00 67 1021.6
20211207230031 33 0 0.0 0.0 0.00 0.12 0.00 66 1021.6
20211207225516 33 0 0.0 0.0 0.00 0.12 0.00 65 1021.7
20211207225022 33 0 0.0 0.0 0.00 0.12 0.00 64 1021.8
20211207224552 34 0 0.0 0.0 0.00 0.12 0.00 62 1021.7
20211207224020 35 0 0.0 0.0 0.00 0.12 0.00 61 1021.6
20211207223533 35 0 0.0 0.0 0.00 0.12 0.00 60 1021.5
20211207223041 35 0 0.0 0.0 0.00 0.12 0.00 57 1021.6
20211207222516 35 0 0.0 1.0 0.00 0.12 0.00 53 1021.7
20211207222022 35 0 0.0 1.0 0.00 0.12 0.00 56 1021.7